This is the latest recevied weather packets stored in our database for station/object CQ0XVC-11. If no packets are shown the sender has not sent any weather packets the latest 10 day(s).
| Time | Temp. | Humidity | Pressure | Rain* | Wind** | Luminosity | Snow |
|---|---|---|---|---|---|---|---|
| 1777911284 | 16.67° C | 35% | 1002.9 hPa | 0 mm | - | - | - |
| 1777911241 | 16.67° C | 35% | 1002.9 hPa | 0 mm | - | - | - |
| 1777910938 | 16.67° C | 35% | 1002.8 hPa | 0 mm | - | - | - |
| 1777910679 | 16.67° C | 34% | 1002.8 hPa | 0 mm | - | - | - |
| 1777910637 | 16.67° C | 34% | 1002.8 hPa | 0 mm | - | - | - |
| 1777910334 | 16.67° C | 33% | 1003 hPa | 0 mm | - | - | - |
| 1777909730 | 16.67° C | 33% | 1002.9 hPa | 0 mm | - | - | - |
| 1777909428 | 16.67° C | 33% | 1002.9 hPa | 0 mm | - | - | - |
| 1777909125 | 17.78° C | 31% | 1002.9 hPa | 0 mm | - | - | - |
| 1777908866 | 18.33° C | 28% | 1002.8 hPa | 0 mm | - | - | - |
| 1777908824 | 18.33° C | 28% | 1002.8 hPa | 0 mm | - | - | - |
| 1777908521 | 18.33° C | 28% | 1002.8 hPa | 0 mm | - | - | - |
| 1777908219 | 18.33° C | 27% | 1002.8 hPa | 0 mm | - | - | - |
| 1777907917 | 18.33° C | 27% | 1002.9 hPa | 0 mm | - | - | - |
| 1777907615 | 18.33° C | 27% | 1002.9 hPa | 0 mm | - | - | - |
| 1777907312 | 18.33° C | 27% | 1003 hPa | 0 mm | - | - | - |
| 1777907011 | 17.78° C | 30% | 1003 hPa | 0 mm | - | - | - |
| 1777906708 | 17.22° C | 31% | 1003 hPa | 0 mm | - | - | - |
| 1777906406 | 17.78° C | 32% | 1003 hPa | 0 mm | - | - | - |
| 1777906136 | 17.78° C | 32% | 1003.1 hPa | 0 mm | - | - | - |
| 1777906104 | 17.78° C | 32% | 1003.1 hPa | 0 mm | - | - | - |
| 1777905802 | 17.22° C | 32% | 1003.1 hPa | 0 mm | - | - | - |
| 1777905499 | 17.78° C | 33% | 1003.1 hPa | 0 mm | - | - | - |
| 1777905231 | 17.22° C | 32% | 1003.1 hPa | 0 mm | - | - | - |
| 1777905198 | 17.22° C | 32% | 1003.1 hPa | 0 mm | - | - | - |
* Rain since midnight (hover to see other rain measurements)
** Current wind speed in m/s (hover to see current wind gust speed)